Tracking 35275 objects as of 9-Sep-2026
HD Live streaming from Space Station
objects crossing your sky now

SL-3 DEB


SL-3 DEB is no longer on orbit


NORAD ID: 1365
Int'l Code: 1965-035D
Launch date: May 7, 1965
Source: Commonwealth of Independent States (former USSR) (CIS)
Launch site: TYURATAM MISSILE AND SPACE COMPLEX (TTMTR)
Decay date: 1965-05-09

Note: This is SATELLITE DEBRIS
Your satellite tracking list
Your tracking list is empty




NASA's NSSDC Master Catalog

Two Line Element Set (TLE):
1 01365U 65035  D 65127.76216910  .00426252 +52638-3 +00000-0 0  9995
2 01365 064.9684 042.3834 0058853 008.4044 351.7922 16.14721868000066
Source of the keplerian elements: AFSPC